Location: De Har
(53.3413°N, 6.6858°E)
Time: 20:30:57
(UTC+00:00)

H-2A R/B - Pass Details

Date: 22 April 2026
Orbit: 730 x 829 km, 98.3° (Epoch: 21 May)

Event Time Altitude Azimuth Distance (km) Brightness Sun altitude
Rises 02:55:07 0° 15° (NNE) 3,234 6.2 -11.5°
Reaches altitude 10° 02:57:24 10° 15° (NNE) 2,318 5.4 -11.2°
Maximum altitude 03:02:32 88° 288° (WNW) 790 2.1 -10.6°
Drops below altitude 10° 03:07:46 10° 198° (SSW) 2,366 4.0 -10.0°
Enters shadow 03:08:31 - 198° (SSW) 2,663 4.3 -9.9°
